Weather History for Albuquerque, NM

Change the Weather History Date:

Thursday, May 10, 2012

  Actual Average Record
Temperature  
Mean Temperature 17 °C 18 °C  
Max Temperature 26 °C 25 °C 33 °C (2000)
Min Temperature 8 °C 11 °C 1 °C (1912)
Degree Days  
Heating Degree Days 2 3  
Month to date heating degree days 14 39  
Since 1 July heating degree days 3767 4143  
Cooling Degree Days 0 2  
Month to date cooling degree days 18 13  
Year to date cooling degree days 55 20  
Growing Degree Days 12 (Base 50)    
Moisture  
Dew Point 3 °C    
Average Humidity 45    
Maximum Humidity 71    
Minimum Humidity 18    
Precipitation  
Precipitation 0.00 mm 0.25 mm 2.59 mm (1932)
Month to date precipitation 0.00 0.16  
Year to date precipitation 1.67 2.20  
Snow  
Snow 0.00 cm - - ()
Month to date snowfall 0.0  
Since 1 July snowfall 10.0  
Snow Depth 0.00 cm    
Sea Level Pressure  
Sea Level Pressure 1008 hPa    
Wind  
Wind Speed 7 km/h (SE)    
Max Wind Speed 63 km/h    
Max Gust Speed 74 km/h    
Visibility 16 kilometers    
Events      
T = Trace of Precipitation, MM = Missing Value Source: NWS Daily Summary

Daily Weather History Graph

Daily Weather History Graph

Search for Another Location

Airport:

Trip Planner

Search our weather history database for the weather conditions in past years. The results will help you decide how hot, cold, wet, or windy it might be!

Date:

Astronomy

May. 10, 2012 Rise Set
Actual Time 6:06 AM MDT 7:59 PM MDT
Civil Twilight 5:38 AM MDT 8:27 PM MDT
Nautical Twilight 5:05 AM MDT 9:01 PM MDT
Astronomical Twilight 4:29 AM MDT 9:37 PM MDT
Moon No Moon Rise 10:34 AM MDT (5/10)
Length of Visible Light 14h 48m
Length of Day
13h 53m
Waning Gibbous, 72% of the Moon is Illuminated
May 10
Waning Gibbous
May 12
Last Quarter
May 20
New
May 28
First Quarter
Jun 4
Full

Hourly Weather History & Observations

Time (MDT) Temp. Windchill Dew Point Humidity Pressure Visibility Wind Dir Wind Speed Gust Speed Precip Events Conditions
12:52 AM 12.8 °C - 4.4 °C 57% 1012.3 hPa 16.1 km East 5.6 km/h / 1.5 m/s - N/A   Partly Cloudy
1:52 AM 13.3 °C - 4.4 °C 55% 1011.4 hPa 16.1 km Calm Calm - N/A   Clear
2:52 AM 12.2 °C - 5.6 °C 64% 1010.5 hPa 16.1 km North 7.4 km/h / 2.1 m/s - N/A   Clear
3:52 AM 12.2 °C - 6.1 °C 66% 1010.4 hPa 16.1 km Calm Calm - N/A   Clear
4:52 AM 11.1 °C - 5.6 °C 69% 1010.6 hPa 16.1 km Calm Calm - N/A   Partly Cloudy
5:52 AM 8.9 °C - 2.8 °C 66% 1010.9 hPa 16.1 km ESE 5.6 km/h / 1.5 m/s - N/A   Scattered Clouds
6:52 AM 7.8 °C 5.5 °C 2.2 °C 68% 1012.1 hPa 16.1 km SE 13.0 km/h / 3.6 m/s - N/A   Scattered Clouds
7:52 AM 12.8 °C - 3.9 °C 55% 1011.3 hPa 16.1 km Calm Calm - N/A   Scattered Clouds
8:52 AM 14.4 °C - 5.6 °C 56% 1011.2 hPa 16.1 km Calm Calm - N/A   Mostly Cloudy
9:52 AM 15.6 °C - 5.0 °C 49% 1011.2 hPa 16.1 km Calm Calm - N/A   Mostly Cloudy
10:52 AM 17.2 °C - 5.0 °C 45% 1010.4 hPa 16.1 km SW 9.3 km/h / 2.6 m/s - N/A   Mostly Cloudy
11:52 AM 19.4 °C - 3.9 °C 36% 1009.2 hPa 16.1 km Variable 5.6 km/h / 1.5 m/s - N/A   Mostly Cloudy
12:52 PM 21.1 °C - 1.7 °C 28% 1007.7 hPa 16.1 km Calm Calm - N/A   Mostly Cloudy
1:52 PM 23.3 °C - 0.6 °C 22% 1006.2 hPa 16.1 km Calm Calm - N/A   Mostly Cloudy
2:52 PM 22.8 °C - -1.1 °C 20% 1005.2 hPa 16.1 km Calm Calm - N/A   Mostly Cloudy
3:52 PM 23.9 °C - -0.6 °C 20% 1004.1 hPa 16.1 km Variable 5.6 km/h / 1.5 m/s - N/A   Mostly Cloudy
4:52 PM 25.0 °C - 0.0 °C 19% 1003.4 hPa 16.1 km Variable 7.4 km/h / 2.1 m/s - N/A   Mostly Cloudy
5:52 PM 25.0 °C - 0.0 °C 19% 1003.4 hPa 16.1 km Variable 5.6 km/h / 1.5 m/s - N/A   Mostly Cloudy
6:52 PM 25.0 °C - -0.6 °C 19% 1003.4 hPa 16.1 km Calm Calm - N/A   Mostly Cloudy
7:52 PM 22.2 °C - 2.2 °C 27% 1003.7 hPa 16.1 km ESE 37.0 km/h / 10.3 m/s 48.2 km/h / 13.4 m/s N/A   Mostly Cloudy
8:52 PM 20.0 °C - 2.8 °C 32% 1005.4 hPa 16.1 km ESE 25.9 km/h / 7.2 m/s - N/A   Mostly Cloudy
9:37 PM 19.0 °C - 3.0 °C 35% 1013.4 hPa 16.1 km ESE 14.8 km/h / 4.1 m/s 31.5 km/h / 8.7 m/s N/A   Mostly Cloudy
9:52 PM 19.4 °C - 3.9 °C 36% 1007.0 hPa 16.1 km SE 14.8 km/h / 4.1 m/s - N/A   Mostly Cloudy
10:52 PM 17.2 °C - 5.0 °C 45% 1007.9 hPa 16.1 km SSE 11.1 km/h / 3.1 m/s - N/A   Mostly Cloudy
11:52 PM 16.7 °C - 7.2 °C 53% 1007.7 hPa 16.1 km SE 7.4 km/h / 2.1 m/s - N/A   Mostly Cloudy